Find Starlink 31317

NORAD ID: 58931 Int'l Des: 2024-027 Owner: SPXS Country: US Constellation: starlink operational
LEOCIRCULAR

現在のビュー

3D地球を読み込み中...

Starlink 31317について

説明を読み込み中...

次回通過

Passes for default location (London). Set your location on the main map for personalized predictions.

高度履歴

Loading altitude history...

軌道要素

1 58931U 24027A 26157.99931622 .00013297 00000-0 45954-3 0 9995
2 58931 53.1598 254.6767 0001512 129.0555 231.0580 15.30251071130842
Epoch: Jun 6, 2026 • Age: 47 hours

現在のステータス

高度 479.1 km
速度 7.63 km/s
衛星直下点 43.85°N, 44.86°E
打ち上げ日 Feb 10, 2024
運用期間 2.3 years
タイプ internet

技術仕様

分類 Payload
質量 730.00 kg
乾燥質量 700.00 kg
総質量 730.00 kg
長さ 0.30 m
直径 4.10 m
スパン 29.00 m
形状 Box + pan
製造者 SPXS
バスタイプ Starlink V2M
フェーズステータス In Orbit
所有者/国 SPXS/US

Most Searched